Weather History for KOLV - October, 2012

Change the Weather History Date:

Saturday, October 13, 2012

  Actual Average (KMEM) Record (KMEM)
Temperature  
Mean Temperature 72 °F 65 °F  
Max Temperature 82 °F 75 °F 92 °F (1963)
Min Temperature 62 °F 55 °F 34 °F (1917)
Degree Days  
Heating Degree Days 0 3  
Month to date heating degree days 28  
Since 1 July heating degree days 39  
Cooling Degree Days 7 3  
Month to date cooling degree days 55  
Year to date cooling degree days 2206  
Growing Degree Days 22 (Base 50)    
Moisture  
Dew Point 64 °F    
Average Humidity 78    
Maximum Humidity 100    
Minimum Humidity 48    
Precipitation  
Precipitation 0.00 in 0.12 in 1.75 in (1970)
Month to date precipitation 1.53  
Year to date precipitation 40.00  
Snow  
Snow 0.00 in 0.00 in 0.00 in (2002)
Month to date snowfall 0.0  
Since 1 July snowfall 0.0  
Since 1 September snowfall 0.0  
Snow Depth -    
Sea Level Pressure  
Sea Level Pressure 30.13 in    
Wind  
Wind Speed 6 mph (SSE)    
Max Wind Speed 17 mph    
Max Gust Speed 26 mph    
Visibility 6 miles    
Events      
T = Trace of Precipitation, MM = Missing Value Source: NWS Daily Summary

Daily Weather History Graph

Daily Weather History Graph

Search for Another Location

Airport or City:

Trip Planner

Search our weather history database for the weather conditions in past years. The results will help you decide how hot, cold, wet, or windy it might be!

Date:

Astronomy

Oct. 13, 2012 Rise Set
Actual Time 7:03 AM CDT 6:26 PM CDT
Civil Twilight 6:38 AM CDT 6:51 PM CDT
Nautical Twilight 6:08 AM CDT 7:20 PM CDT
Astronomical Twilight 5:39 AM CDT 7:50 PM CDT
Moon 4:57 AM CDT (10/13) 5:07 PM CDT (10/13)
Length of Visible Light 12h 13m
Length of Day
11h 22m
Waning Crescent, 5% of the Moon is Illuminated
Oct 13
Waning Crescent
Oct 15
New
Oct 21
First Quarter
Oct 29
Full
Nov 6
Last Quarter

Hourly Weather History & Observations

Time (CDT) Temp. Heat Index Dew Point Humidity Pressure Visibility Wind Dir Wind Speed Gust Speed Precip Events Conditions
12:15 AM 64.4 °F - - N/A% 30.22 in 0.5 mi East 4.6 mph - 0.00 in   Overcast
12:35 AM 64.4 °F - - N/A% 30.21 in 0.5 mi East 4.6 mph - 0.00 in   Overcast
12:55 AM 64.4 °F - - N/A% 30.20 in 0.2 mi East 3.5 mph - 0.00 in   Overcast
1:15 AM 64.4 °F - - N/A% 30.20 in 0.5 mi East 3.5 mph - N/A   Overcast
1:35 AM 64.4 °F - - N/A% 30.21 in 0.8 mi East 3.5 mph - 0.00 in   Overcast
1:55 AM 64.4 °F - - N/A% 30.20 in 1.0 mi ESE 3.5 mph - 0.00 in   Overcast
2:15 AM 64.4 °F - - N/A% 30.19 in 1.8 mi Calm Calm - 0.00 in   Overcast
2:35 AM 64.4 °F - - N/A% 30.19 in 2.0 mi East 3.5 mph - 0.00 in   Overcast
2:55 AM 64.4 °F - - N/A% 30.19 in 2.5 mi Calm Calm - N/A   Overcast
3:15 AM 64.4 °F - - N/A% 30.18 in 2.5 mi East 3.5 mph - N/A   Mostly Cloudy
3:35 AM 64.4 °F - - N/A% 30.19 in 3.0 mi East 3.5 mph - 0.00 in   Mostly Cloudy
3:55 AM 64.4 °F - - N/A% 30.18 in 2.5 mi East 3.5 mph - N/A   Mostly Cloudy
4:15 AM 64.4 °F - - N/A% 30.18 in 2.5 mi Calm Calm - 0.00 in   Mostly Cloudy
4:35 AM 64.4 °F - - N/A% 30.18 in 2.5 mi Calm Calm - 0.00 in   Mostly Cloudy
4:55 AM 64.4 °F - - N/A% 30.18 in 2.5 mi ESE 3.5 mph - 0.00 in   Mostly Cloudy
5:15 AM 64.4 °F - - N/A% 30.18 in 2.5 mi SE 3.5 mph - 0.00 in   Scattered Clouds
5:35 AM 62.6 °F - - N/A% 30.17 in 2.0 mi SE 4.6 mph - N/A   Clear
5:55 AM 64.4 °F - - N/A% 30.17 in 3.0 mi SE 6.9 mph - 0.00 in   Clear
6:15 AM 64.4 °F - - N/A% 30.18 in 4.0 mi SSE 5.8 mph - N/A   Scattered Clouds
6:35 AM 64.4 °F - - N/A% 30.17 in 4.0 mi SE 5.8 mph - 0.00 in   Partly Cloudy
6:50 AM 64.4 °F - 64.4 °F 100% 30.19 in 4.0 mi SSE 5.8 mph - N/A   Scattered Clouds
7:50 AM 64.4 °F - 64.4 °F 100% 30.21 in 4.0 mi SSE 4.6 mph - N/A   Mostly Cloudy
9:50 AM 66.2 °F - 66.2 °F 100% 30.21 in 5.0 mi South 9.2 mph - N/A   Scattered Clouds
10:50 AM 71.6 °F - 69.8 °F 94% 30.21 in 8.0 mi SSW 11.5 mph - N/A   Scattered Clouds
11:50 AM 78.8 °F - 64.4 °F 61% 30.17 in 8.0 mi SSW 17.3 mph 24.2 mph N/A   Mostly Cloudy
12:50 PM 80.6 °F 81.8 °F 62.6 °F 54% 30.13 in 8.0 mi SSW 17.3 mph 26.5 mph N/A   Mostly Cloudy
1:50 PM 82.4 °F 82.9 °F 60.8 °F 48% 30.10 in 8.0 mi South 17.3 mph 23.0 mph N/A   Mostly Cloudy
2:50 PM 80.6 °F 81.8 °F 62.6 °F 54% 30.08 in 10.0 mi South 17.3 mph 23.0 mph N/A   Mostly Cloudy
3:50 PM 80.6 °F 81.8 °F 62.6 °F 54% 30.07 in 10.0 mi South 16.1 mph - N/A   Mostly Cloudy
4:50 PM 78.8 °F - 62.6 °F 57% 30.06 in 10.0 mi South 13.8 mph 20.7 mph N/A   Mostly Cloudy
5:50 PM 77.0 °F - 62.6 °F 61% 30.06 in 10.0 mi South 9.2 mph - N/A   Mostly Cloudy
6:50 PM 73.4 °F - 64.4 °F 73% 30.05 in 10.0 mi South 5.8 mph - N/A   Mostly Cloudy
7:50 PM 71.6 °F - 64.4 °F 78% 30.05 in 10.0 mi South 8.1 mph - N/A   Mostly Cloudy
8:55 PM 69.8 °F - 64.4 °F 83% 30.04 in 10.0 mi SSE 8.1 mph - N/A   Clear
9:15 PM 69.8 °F - 64.4 °F 83% 30.04 in 10.0 mi SSE 9.2 mph - 0.00 in   Clear
9:35 PM 69.8 °F - 64.4 °F 83% 30.05 in 10.0 mi SSE 8.1 mph - 0.00 in   Clear
9:55 PM 69.8 °F - 64.4 °F 83% 30.04 in 7.0 mi SSE 9.2 mph - 0.00 in   Clear
10:15 PM 69.8 °F - 66.2 °F 88% 30.03 in 10.0 mi SSE 9.2 mph - 0.00 in   Clear
10:35 PM 68.0 °F - 66.2 °F 94% 30.03 in 10.0 mi SSE 8.1 mph - 0.00 in   Clear
10:55 PM 69.8 °F - 66.2 °F 88% 30.03 in 10.0 mi South 10.4 mph - 0.00 in   Clear
11:15 PM 69.8 °F - 64.4 °F 83% 30.02 in 8.0 mi South 10.4 mph - 0.00 in   Clear
11:35 PM 69.8 °F - 64.4 °F 83% 30.01 in 9.0 mi South 9.2 mph - 0.00 in   Clear
11:55 PM 69.8 °F - 66.2 °F 88% 30.01 in 10.0 mi South 11.5 mph - N/A   Clear